Location: Unspecified
(44.4377°N, 88.0525°W)
Time: 20:17:48
(UTC-05:00)

Resurs 1-4 Rocket - Visible Passes

Search period start: 30 July 2014 00:00
Search period end: 09 August 2014 00:00
Orbit: 800 x 815 km, 98.3° (Epoch: 29 July)

Date Brightness Start Highest point End Pass type
(mag) Time Alt. Az. Time Alt. Az. Time Alt. Az.
30 Jul 3.0 04:43:01 10° NNE 04:48:08 49° E 04:53:12 10° S visible
31 Jul 3.9 04:18:58 10° NE 04:23:35 30° E 04:28:09 10° SSE visible
01 Aug 4.5 03:55:18 10° NE 03:58:56 19° E 04:02:33 10° SE visible
02 Aug 4.9 03:32:53 10° ENE 03:34:12 11° E 03:35:30 10° E visible
03 Aug 2.9 04:45:14 10° NNE 04:50:23 52° E 04:55:29 10° S visible
04 Aug 3.8 04:21:09 10° NNE 04:25:50 32° E 04:30:29 10° SSE visible
05 Aug 4.5 03:57:25 10° NE 04:01:12 20° E 04:04:58 10° SE visible
06 Aug 4.8 03:34:41 10° ENE 03:36:29 12° E 03:38:17 10° ESE visible
06 Aug 2.2 05:11:47 10° NNE 05:17:04 90° ESE 05:22:20 10° SSW visible
07 Aug 2.8 04:47:27 10° NNE 04:52:38 55° E 04:57:46 10° S visible
08 Aug 3.7 04:23:20 10° NNE 04:28:06 34° E 04:32:49 10° SSE visible
